sat.trackr.live / text

‹ back to catalog

STARLINK-2156

NORAD 47742 · 2021-017W

PAYLOAD ACTIVE UNKNOWN

§ Identity

Operator
Country
US
Launch date
2021-03-04
Launch site
AFETR
Launch vehicle
Mass (kg)
RCS (m²)

Purposes: comms

External: N2YO · Heavens-Above · Gunter

§ Orbital elements

Epoch: 2026-09-14T16:24:05.560416Z

Period
94.01 min
Inclination
53.1622°
Eccentricity
0.0001194
Mean motion
15.31698056 rev/d
Perigee alt
469.9 km
Apogee alt
471.6 km
Semi-major
6,848.9 km
B*
3.8396e-6
RAAN
34.6288°
Arg perigee
105.1132°
Mean anomaly
255.0002°
Rev number
30,699

§ Raw data

STARLINK-21561 47742U 21017W   26257.68339769 -.00000246  00000+0  38396-5 0  99942 47742  53.1622  34.6288 0001194 105.1132 255.0002 15.31698056306999

JSON: /api/v1/satellites/47742 · /tle

For live sub-satellite position, see the globe view (requires WebGL).

§ Visibility from observer

Set your observer location to see the next 7 days of passes ≥ 10°. The values pass through the URL so the page stays shareable.

No JS? Fill the form by hand. The geolocation button needs JavaScript.